Date,TemperatureHighF,TemperatureAvgF,TemperatureLowF,DewpointHighF,DewpointAvgF,DewpointLowF,HumidityHigh,HumidityAvg,HumidityLow,PressureMaxIn,PressureMinIn,WindSpeedMaxMPH,WindSpeedAvgMPH,GustSpeedMaxMPH,PrecipitationSumIn
2014-1-1,55.8,37.1,23.5,38.2,27.8,-24.6,98,72,10,30.22,29.87,24,2,24,0.00
2014-1-2,41.4,34.4,0.0,38.6,36.2,32.7,99,92,84,29.88,29.17,7,0,7,0.33
2014-1-3,32.9,22.8,11.5,32.7,13.2,2.4,99,69,36,30.29,29.21,19,4,19,0.01
2014-1-4,45.9,27.6,10.0,27.8,16.2,5.2,88,65,33,30.39,29.99,11,3,11,0.01
2014-1-5,37.6,37.4,37.4,27.5,27.5,27.5,67,67,67,30.03,30.01,4,3,4,0.00
2014-1-6,37.4,37.4,37.4,27.5,27.5,27.5,67,67,67,30.03,30.03,3,3,4,0.00
2014-1-7,37.4,37.4,37.4,27.5,27.5,27.5,67,67,67,30.03,30.03,3,3,4,0.00
2014-1-8,37.4,37.4,37.4,27.5,27.5,27.5,67,67,67,30.03,30.03,3,3,4,0.00
2014-1-9,37.4,37.4,37.4,27.5,27.5,27.5,67,67,67,30.03,30.03,3,3,4,0.00
2014-1-10,37.4,37.4,37.4,27.5,27.5,27.5,67,67,67,30.03,30.03,3,3,4,0.00
2014-1-11,37.4,37.4,37.4,27.5,27.5,27.5,67,67,67,30.03,30.03,3,3,4,0.00
2014-1-12,37.4,37.4,37.4,27.5,27.5,27.5,67,67,67,30.03,30.03,3,3,4,0.00
2014-1-13,37.4,37.4,37.4,27.5,27.5,27.5,67,67,67,30.03,30.03,3,3,4,0.00
2014-1-14,37.4,37.4,37.4,27.5,27.5,27.5,67,67,67,30.03,30.03,3,3,4,0.00
2014-1-15,37.4,37.4,37.4,27.5,27.5,27.5,67,67,67,30.03,30.03,3,3,4,0.00
2014-1-16,37.4,37.4,37.4,27.5,27.5,27.5,67,67,67,30.03,30.03,3,3,4,0.00
2014-1-17,42.1,41.9,41.9,35.6,35.5,35.2,78,78,77,29.92,29.90,3,2,3,1.62
2014-1-18,43.7,33.7,20.1,37.0,20.2,10.8,85,59,35,30.16,29.89,17,5,17,0.00
2014-1-19,56.7,38.6,19.6,30.6,24.3,11.1,74,58,34,30.22,29.83,14,3,14,0.00
2014-1-20,60.6,45.5,38.1,32.1,29.6,27.9,70,55,31,30.03,29.67,10,3,10,0.00
2014-1-21,38.1,30.1,18.5,33.1,26.6,18.3,99,87,68,30.08,29.76,24,7,24,0.00
2014-1-22,23.7,12.3,5.9,18.3,3.0,-3.9,99,67,34,30.27,30.00,19,10,19,0.00
2014-1-23,37.4,20.1,3.6,13.2,7.1,-1.2,81,58,46,30.72,30.26,7,2,7,0.00
2014-1-24,32.2,26.8,19.9,11.8,7.8,-2.9,47,44,23,30.82,30.30,17,3,17,0.00
2014-1-25,34.2,26.7,20.5,22.5,11.4,-23.5,94,53,10,30.35,29.54,19,7,19,0.00
2014-1-26,41.4,31.0,15.3,25.0,13.6,3.3,73,49,28,30.03,29.76,11,3,11,0.00
2014-1-27,54.3,39.6,24.8,35.9,23.1,3.0,68,52,33,30.36,29.71,17,6,17,0.00
2014-1-28,24.6,17.5,13.1,11.2,-0.5,-8.1,91,47,30,30.60,30.36,17,5,17,0.00
2014-1-29,31.8,16.8,9.9,11.4,4.1,-3.7,92,62,25,30.62,30.38,12,3,12,0.00
2014-1-30,40.3,18.9,0.0,18.8,5.6,-4.1,91,61,18,30.77,30.44,9,2,9,0.01
2014-1-31,48.9,30.6,17.2,22.2,17.9,14.9,93,63,28,30.49,30.25,6,2,6,0.01
2014-2-1,58.3,40.0,22.3,39.9,30.0,16.7,89,68,44,30.52,30.22,9,2,9,0.00
2014-2-2,59.0,52.8,41.7,40.0,37.9,33.7,85,59,47,30.22,30.02,10,3,10,0.00
2014-2-3,59.0,59.0,59.0,38.8,38.8,38.8,47,47,47,30.11,30.11,3,3,4,0.00
2014-2-4,59.0,59.0,59.0,38.8,38.8,38.8,47,47,47,30.11,30.11,3,3,4,0.00
2014-2-5,59.0,59.0,59.0,38.8,38.8,38.8,47,47,47,30.11,30.11,3,3,4,0.00
2014-2-6,59.0,59.0,59.0,38.8,38.8,38.8,47,47,47,30.11,30.11,3,3,4,0.00
2014-2-7,59.0,59.0,59.0,38.8,38.8,38.8,47,47,47,30.11,30.11,3,3,4,0.00
2014-2-8,59.0,59.0,59.0,38.8,38.8,38.8,47,47,47,30.11,30.11,3,3,4,0.00
2014-2-9,59.0,59.0,59.0,38.8,38.8,38.8,47,47,47,30.11,30.11,3,3,4,0.00
2014-2-10,59.0,59.0,59.0,38.8,38.8,38.8,47,47,47,30.11,30.11,3,3,4,0.00
2014-2-11,59.0,59.0,59.0,38.8,38.8,38.8,47,47,47,30.11,30.11,3,3,4,0.00
2014-2-12,59.0,59.0,59.0,38.8,38.8,38.8,47,47,47,30.11,30.11,3,3,4,0.00
2014-2-13,59.0,59.0,59.0,38.8,38.8,38.8,47,47,47,30.11,30.11,3,3,4,0.00
2014-2-15,36.1,33.8,30.4,35.5,27.1,17.4,99,78,58,30.44,29.90,21,9,21,2.31
2014-2-16,47.7,33.4,26.2,24.9,19.2,12.7,81,57,35,30.66,30.38,13,4,13,0.00
2014-2-17,43.3,32.2,26.4,25.0,17.4,10.6,75,55,32,30.85,30.66,13,4,13,0.00
2014-2-18,63.7,43.5,30.4,38.3,30.0,23.9,99,64,27,30.77,30.40,14,3,14,0.27
2014-2-19,69.6,54.0,40.5,58.6,40.4,24.9,99,62,34,30.59,30.11,17,4,17,0.07
2014-2-20,56.5,47.0,30.4,40.8,33.2,25.5,90,61,33,30.69,30.39,11,3,11,0.00
2014-2-21,72.7,54.3,37.2,64.1,52.5,37.0,99,94,74,30.40,29.98,21,3,21,0.27
2014-2-22,68.7,48.7,33.1,44.2,35.8,24.9,99,68,23,30.56,30.39,10,2,10,0.01
2014-2-23,77.2,54.9,43.9,37.4,33.3,25.2,67,47,18,30.56,30.24,14,4,14,0.00
2014-2-24,54.7,44.2,34.5,38.1,20.7,4.6,81,43,15,30.66,30.33,16,6,16,0.00
2014-2-25,42.4,33.9,27.7,33.0,23.3,11.1,93,67,38,30.69,30.37,8,2,8,0.00
2014-2-26,41.9,31.6,22.1,33.8,23.6,11.7,96,74,42,30.49,30.26,10,2,10,0.01
2014-2-27,50.2,33.3,19.6,26.3,12.8,2.5,77,48,16,30.60,30.03,23,5,23,0.00
2014-2-28,34.5,22.9,14.4,8.4,1.7,-8.3,62,40,22,30.90,30.59,14,4,14,0.00
2014-3-1,52.2,32.6,14.9,32.6,19.5,7.9,89,62,27,30.97,30.66,8,2,8,0.00
2014-3-2,71.6,45.8,37.4,44.4,36.4,31.1,99,73,36,30.68,30.31,17,4,17,0.06
2014-3-3,37.4,24.4,15.1,37.1,23.1,9.5,99,95,77,30.94,30.41,13,2,13,0.21
2014-3-4,36.9,23.7,8.1,20.2,12.7,4.6,90,65,38,31.03,30.83,7,1,7,0.11
2014-3-5,47.7,35.3,28.4,26.5,19.6,8.9,78,55,26,30.97,30.74,14,4,14,0.02
2014-3-6,37.4,31.8,27.1,27.4,22.0,17.4,86,67,54,31.12,30.94,15,8,17,0.00
2014-3-7,39.4,36.1,31.1,34.4,31.5,27.3,89,83,75,30.95,30.41,23,9,23,0.00
2014-3-8,69.8,47.1,30.4,40.9,34.8,27.3,91,66,33,30.50,30.35,10,2,10,0.00
2014-3-9,58.1,48.2,35.2,39.4,28.9,17.8,86,51,22,30.58,30.39,15,4,15,0.00
2014-3-10,63.5,46.7,34.2,43.3,33.4,23.4,82,61,34,30.58,30.14,9,2,9,0.13
2014-3-11,82.4,61.6,48.6,42.1,37.3,33.2,59,43,20,30.19,30.03,10,2,10,0.00
2014-3-12,67.3,53.0,36.9,59.6,41.2,23.5,92,65,51,30.05,29.44,21,6,27,0.02
2014-3-13,38.7,31.6,25.7,23.4,6.7,-2.0,60,36,21,30.83,29.88,27,11,27,0.00
2014-3-14,61.5,41.5,21.4,32.8,18.8,5.1,67,42,19,30.91,30.46,14,4,14,0.00
2014-3-15,74.3,58.9,47.7,37.6,30.6,21.4,58,36,17,30.52,30.28,17,5,17,0.00
2014-3-16,47.8,40.8,31.3,32.5,27.3,21.9,99,61,39,30.69,30.52,15,5,15,0.00
2014-3-17,30.6,28.5,26.8,30.3,27.8,26.6,99,97,90,30.64,30.47,19,7,19,0.00
2014-3-18,43.2,35.7,29.3,33.4,29.3,25.2,90,78,63,30.77,30.60,21,7,21,0.12
2014-3-19,44.4,39.2,35.4,44.0,38.0,32.2,99,95,85,30.81,30.37,10,3,10,0.20
2014-3-20,66.9,52.1,41.7,50.6,35.8,19.7,99,64,18,30.53,30.31,14,4,14,0.01
2014-3-21,69.1,49.0,36.9,40.1,33.0,24.1,78,57,28,30.61,30.47,14,3,14,0.00
2014-3-22,74.7,58.0,44.2,42.6,39.2,34.4,83,52,27,30.53,30.25,14,4,14,0.00
2014-3-23,53.6,44.8,38.1,35.0,29.6,16.1,80,56,41,30.67,30.41,17,5,17,0.00
2014-3-24,46.6,34.2,25.9,19.9,12.2,7.0,73,41,22,30.86,30.66,15,5,15,0.00
2014-3-25,41.4,32.8,25.0,37.1,29.7,18.1,99,89,70,30.75,30.28,13,2,13,0.08
2014-3-26,40.5,33.6,28.4,32.3,20.0,10.0,99,62,30,30.92,30.38,22,6,22,0.06
2014-3-27,54.0,37.9,21.0,36.3,21.6,11.9,82,53,33,31.05,30.79,14,3,14,0.00
2014-3-28,68.2,56.1,42.3,58.1,47.9,35.1,90,74,61,30.80,30.48,17,5,17,0.00
2014-3-29,67.1,60.7,59.2,66.8,60.3,58.0,99,99,90,30.56,29.90,10,3,10,0.80
2014-3-30,62.4,46.4,36.0,62.2,44.9,35.7,99,95,79,30.27,29.79,20,7,21,0.41
2014-3-31,68.9,53.2,41.0,41.1,35.7,30.9,99,56,25,30.57,30.27,22,6,22,0.01
2014-4-1,67.3,51.4,37.0,47.2,38.3,30.6,85,62,41,30.65,30.44,8,3,8,0.00
2014-4-2,75.9,56.0,38.7,48.4,44.0,38.2,99,67,35,30.56,30.47,18,4,18,0.00
2014-4-3,69.3,57.0,49.6,53.9,48.8,42.5,99,76,43,30.59,30.36,10,2,10,0.00
2014-4-4,73.8,56.7,49.8,60.4,52.4,46.0,99,86,62,30.40,30.04,14,4,14,0.01
2014-4-5,66.9,52.4,46.9,51.9,40.9,29.2,99,71,31,30.64,30.10,15,4,15,0.18
2014-4-6,61.2,47.8,32.7,37.4,30.1,21.0,81,53,25,30.77,30.62,12,3,12,0.00
2014-4-7,59.2,50.0,40.3,58.9,48.1,34.0,99,93,63,30.68,30.06,12,3,12,0.57
2014-4-8,71.1,61.2,50.0,63.7,51.9,39.7,99,75,35,30.07,29.87,15,4,15,0.02
2014-4-9,71.8,55.2,38.7,44.8,36.9,31.3,97,56,25,30.51,30.07,14,3,14,0.00
2014-4-10,50.5,46.5,41.2,32.1,30.8,29.4,68,55,49,30.60,30.50,2,1,2,0.00
2014-4-11,86.4,73.2,56.8,52.2,47.2,43.7,69,42,24,30.54,30.29,11,4,11,0.14
2014-4-12,80.4,64.6,50.7,56.2,49.2,31.9,99,64,20,30.70,30.38,15,4,15,0.45
2014-4-13,86.4,69.5,54.7,61.1,58.3,53.4,99,71,40,30.61,30.35,17,4,17,0.00
2014-4-14,82.9,71.1,63.7,61.8,58.9,55.6,88,67,43,30.39,30.13,20,6,20,0.19
2014-4-15,72.3,68.2,66.6,70.3,65.8,60.4,99,92,75,30.13,29.86,17,6,17,0.14
2014-4-16,39.6,35.6,31.6,31.5,27.8,25.8,84,73,60,31.07,30.53,18,3,18,0.02
2014-4-17,59.7,43.2,28.6,38.7,33.3,27.3,99,71,41,31.19,31.07,13,4,13,0.00
2014-4-18,56.7,44.9,31.8,42.5,38.0,30.7,99,78,54,31.13,30.76,10,2,10,0.00
2014-4-19,68.9,54.6,42.8,49.2,43.3,36.2,99,70,39,30.81,30.66,15,3,15,0.00
2014-4-20,68.5,54.1,44.1,43.5,37.4,24.0,89,55,36,30.88,30.75,19,6,19,0.00
2014-4-21,70.7,54.8,35.1,50.8,42.1,26.3,88,64,45,30.78,30.31,11,3,11,0.60
2014-4-22,84.4,63.4,50.4,58.7,52.8,49.3,99,73,31,30.31,29.90,12,2,12,0.01
2014-4-23,66.2,57.6,50.4,58.3,40.2,35.3,99,54,37,30.42,29.96,21,8,21,0.00
2014-4-24,69.1,54.5,44.4,36.2,28.9,16.5,67,41,16,30.57,30.42,12,4,12,0.00
2014-4-25,70.7,56.5,41.2,58.9,44.6,33.7,99,69,31,30.50,30.04,15,3,15,0.35
2014-4-26,70.5,63.7,50.0,58.4,47.2,44.1,99,59,39,30.33,30.07,10,6,10,0.00
2014-4-27,70.3,70.3,70.3,44.2,44.2,44.2,39,39,39,30.27,30.27,7,7,8,0.00
2014-4-28,70.3,70.3,70.3,44.2,44.2,44.2,39,39,39,30.27,30.27,7,7,8,0.00
2014-4-29,70.3,70.3,70.3,44.2,44.2,44.2,39,39,39,30.27,30.27,7,7,8,0.00
2014-4-30,70.3,70.3,70.3,44.2,44.2,44.2,39,39,39,30.27,30.27,7,7,8,0.00
2014-5-1,70.3,70.3,70.3,44.2,44.2,44.2,39,39,39,30.27,30.27,7,7,8,0.00
2014-5-2,70.3,70.3,70.3,44.2,44.2,44.2,39,39,39,30.27,30.27,7,7,8,0.00
2014-5-3,70.3,70.3,70.3,44.2,44.2,44.2,39,39,39,30.27,30.27,7,7,8,0.00
2014-5-4,84.2,70.7,50.7,48.6,46.1,41.4,83,45,25,29.99,29.73,15,6,15,3.51
2014-5-5,69.3,57.7,33.3,51.7,40.8,-17.3,99,56,10,30.22,29.99,26,3,26,0.01
2014-5-6,76.5,60.1,49.6,58.6,52.1,46.2,99,79,42,30.15,30.04,8,2,8,0.78
2014-5-7,77.4,61.7,49.1,60.9,54.6,45.6,99,80,42,30.39,30.15,11,2,11,0.02
2014-5-8,90.9,73.2,60.8,71.6,65.6,17.7,99,80,10,30.26,30.04,6,2,6,0.12
2014-5-9,83.7,69.3,61.5,69.9,65.0,61.1,99,87,58,30.20,30.03,6,2,6,0.26
2014-5-10,80.8,72.9,66.4,69.1,66.5,63.2,99,81,62,30.10,29.99,12,3,12,0.01
2014-5-11,86.2,72.1,27.3,66.3,58.7,-22.0,99,68,10,30.20,30.01,8,2,8,0.52
2014-5-12,93.4,73.6,52.2,70.9,61.1,6.3,99,71,10,30.23,30.09,25,3,25,0.72
2014-5-13,95.9,75.5,64.0,75.2,68.6,60.9,99,82,48,32.40,30.07,6,1,6,0.00
2014-5-14,72.5,66.6,60.8,69.8,65.4,60.4,99,96,86,30.29,30.17,6,2,6,0.00
2014-5-15,87.3,74.3,65.7,75.4,69.9,65.4,99,87,63,30.20,29.97,14,2,14,0.00
2014-5-16,79.2,67.9,56.5,70.1,62.4,13.0,99,86,10,29.98,29.78,11,3,27,0.80
2014-5-17,75.7,61.8,50.5,60.7,51.1,45.7,99,71,38,30.23,29.95,8,2,8,0.00
2014-5-18,76.1,60.0,46.8,53.6,46.9,41.0,99,67,31,30.38,30.23,7,2,7,0.00
2014-5-19,76.8,59.4,42.1,49.2,40.6,11.5,99,61,10,30.47,30.28,123,9,123,0.76
2014-5-20,86.0,68.0,51.4,58.7,53.1,48.0,92,63,27,30.38,30.03,5,2,5,0.01
2014-5-21,72.9,72.5,66.4,66.1,59.2,58.7,99,64,61,32.25,29.90,2,2,2,0.17
2014-5-22,91.2,73.2,60.1,73.4,68.0,59.8,99,86,43,29.93,29.79,11,2,11,0.05
2014-5-23,81.5,70.0,60.1,66.7,54.7,-17.0,99,60,39,30.06,29.89,11,4,11,0.30
2014-5-24,82.8,66.4,56.3,59.5,53.2,46.7,98,65,41,32.37,30.04,10,3,10,0.05
2014-5-25,87.6,69.6,52.3,61.4,57.0,52.1,99,70,35,32.42,30.13,8,2,8,0.01
2014-5-26,94.8,78.3,59.9,68.0,63.9,58.8,99,65,34,32.35,30.01,9,2,9,0.28
2014-5-27,93.9,81.7,69.1,71.9,68.5,66.6,99,65,44,32.27,29.88,12,1,12,0.46
2014-5-28,69.1,68.5,62.4,68.8,68.2,62.2,99,99,99,30.13,29.87,6,6,6,0.25
2014-5-29,62.4,58.4,58.1,62.2,58.1,57.8,99,99,99,30.28,30.12,7,2,7,0.24
2014-5-30,58.1,58.1,58.1,57.8,57.8,57.8,99,99,99,30.26,30.16,2,2,4,0.24
2014-5-31,58.1,58.1,58.1,57.8,57.8,57.8,99,99,99,30.37,30.18,2,2,4,0.24
2014-6-1,58.1,58.1,58.1,57.8,57.8,57.8,99,99,99,30.51,30.36,2,2,4,0.24
2014-6-2,78.4,68.3,58.1,57.8,57.2,56.6,99,73,47,30.41,29.71,2,2,4,0.09
2014-6-3,80.1,77.2,69.4,74.8,59.7,56.6,99,57,47,29.73,29.48,2,1,2,0.08
2014-6-4,94.1,78.5,67.3,73.2,68.6,62.4,99,75,40,29.49,29.31,10,2,10,0.24
2014-6-5,81.1,72.2,63.0,73.7,63.4,5.6,99,80,10,29.48,29.17,11,3,11,0.19
2014-6-6,86.5,73.8,57.7,61.0,51.8,4.8,97,52,10,29.64,29.47,100,9,100,0.19
2014-6-7,86.9,80.1,59.0,63.1,58.9,32.8,98,50,37,29.70,29.58,7,2,7,0.19
2014-6-8,118.9,73.0,57.0,69.4,55.2,1.0,99,63,10,29.63,29.47,97,17,97,1.62
2014-6-9,90.5,78.9,72.3,74.1,69.0,64.9,99,72,51,31.77,29.46,9,3,9,0.09
2014-6-10,80.6,78.5,73.4,77.8,76.4,14.7,99,93,10,31.77,29.45,2,2,2,0.00
2014-6-11,80.6,79.8,72.5,77.8,77.2,72.2,99,92,91,31.86,29.52,4,2,4,0.02
2014-6-12,79.9,72.7,-7.6,79.6,72.1,-8.1,99,98,10,31.80,29.46,24,1,24,0.80
2014-6-13,87.8,76.2,71.1,76.9,64.6,20.4,99,80,10,29.47,29.36,4,1,4,0.13
2014-6-14,71.1,70.7,65.3,70.8,69.8,56.1,99,97,70,29.73,29.45,5,2,5,0.13
2014-6-15,83.5,69.9,56.5,68.8,60.6,53.4,99,75,46,29.85,29.73,4,2,4,0.00
2014-6-16,66.4,66.4,66.4,66.1,66.1,66.1,99,99,99,29.79,29.69,0,0,0,0.00
2014-6-17,66.4,66.4,66.4,66.1,66.1,66.1,99,99,99,32.00,29.68,0,0,0,0.00
2014-6-18,66.4,66.4,66.4,66.1,66.1,66.1,99,99,99,31.80,31.80,0,0,0,0.00
2014-6-19,66.4,66.4,66.4,66.1,66.1,66.1,99,99,99,31.80,31.80,0,0,0,0.00
2014-6-20,66.4,66.4,66.4,66.1,66.1,66.1,99,99,99,31.80,31.80,0,0,0,0.00
2014-6-21,66.4,66.4,66.4,66.1,66.1,66.1,99,99,99,31.80,31.80,0,0,0,0.00
2014-6-22,66.4,66.4,66.4,66.1,66.1,66.1,99,99,99,31.80,31.80,0,0,0,0.00
2014-6-23,66.4,66.4,66.4,66.1,66.1,66.1,99,99,99,31.80,31.80,0,0,0,0.00
2014-6-24,66.4,66.4,66.4,66.1,66.1,66.1,99,99,99,31.80,31.80,0,0,0,0.00
2014-6-25,66.4,66.4,66.4,66.1,66.1,66.1,99,99,99,31.80,31.80,0,0,0,0.00
2014-6-26,66.4,66.4,66.4,66.1,66.1,66.1,99,99,99,31.80,31.80,0,0,0,0.00
2014-6-27,66.4,66.4,66.4,66.1,66.1,66.1,99,99,99,31.80,31.80,0,0,0,0.00
2014-6-28,66.4,66.4,66.4,66.1,66.1,66.1,99,99,99,31.80,31.80,0,0,0,0.00
2014-6-29,89.4,68.3,66.4,66.1,65.9,62.7,99,94,41,31.80,29.88,7,0,7,0.30
2014-7-3,99.5,82.5,76.3,79.9,74.1,62.7,93,78,41,29.88,27.32,8,2,8,0.30
2014-7-4,86.9,76.9,64.4,75.7,64.2,-12.5,98,68,34,29.88,27.37,14,6,14,0.46
2014-7-5,89.4,73.6,63.3,59.6,54.6,48.7,87,55,31,30.00,27.58,11,1,11,0.46
2014-7-6,94.3,78.7,61.2,69.4,63.9,59.4,96,64,37,29.81,27.37,8,2,11,0.00
2014-7-7,99.3,84.9,71.6,70.8,67.6,64.1,82,58,36,29.58,27.19,14,3,14,0.00
2014-7-8,100.2,87.3,73.0,74.1,70.8,65.0,99,61,37,29.52,27.19,13,3,13,0.27
2014-7-9,93.6,78.7,70.0,79.0,73.9,69.7,99,87,55,29.61,27.33,27,2,27,0.65
2014-7-10,84.6,77.0,70.5,78.7,75.2,70.3,99,94,77,29.71,27.39,8,1,8,0.34
2014-7-11,92.1,78.5,68.7,79.6,72.1,68.3,99,83,55,29.83,27.47,7,1,7,0.01
2014-7-12,92.8,80.3,68.4,79.6,71.7,65.5,99,78,44,29.88,27.51,14,2,14,0.00
2014-7-13,97.2,84.0,73.4,79.2,75.1,72.5,99,77,49,29.77,27.29,11,3,11,0.00
2014-7-14,101.1,85.8,76.5,82.7,76.5,73.4,99,75,51,29.59,27.19,10,2,10,0.00
2014-7-15,98.1,80.0,73.0,81.9,75.8,71.7,99,89,52,29.44,29.26,17,2,17,0.74
2014-7-16,89.1,76.1,62.8,73.0,67.5,61.9,99,78,41,29.55,29.33,11,2,11,0.00
2014-7-17,90.3,74.7,61.0,65.7,61.7,56.1,99,69,33,29.75,27.34,9,2,9,0.00
2014-7-18,65.1,65.1,65.1,63.4,63.4,63.4,94,94,94,29.75,29.75,0,0,0,0.00
2014-7-19,65.1,65.1,65.1,63.4,63.4,63.4,94,94,94,29.75,29.75,0,0,0,0.00
2014-7-20,65.1,65.1,65.1,63.4,63.4,63.4,94,94,94,29.75,29.75,0,0,0,0.00
2014-7-23,100.8,89.7,75.2,78.5,76.5,72.9,99,67,46,29.92,29.84,14,2,14,0.13
2014-7-24,79.3,73.7,68.0,77.8,72.9,67.7,99,97,81,29.98,27.68,7,1,7,0.25
2014-7-25,89.6,74.8,60.3,69.5,63.6,58.6,99,72,39,30.16,27.74,10,2,10,0.00
2014-7-26,91.8,78.8,70.2,78.0,71.6,65.3,99,79,58,30.11,29.96,8,2,8,0.01
2014-7-27,89.1,78.9,72.1,78.8,75.6,71.9,99,90,68,29.97,27.45,11,2,11,0.08
2014-7-28,90.7,82.0,71.6,77.2,68.7,60.1,99,67,39,29.86,29.58,14,4,14,0.00
2014-7-29,81.7,72.1,62.1,62.5,58.1,52.9,93,64,41,30.10,27.82,11,3,11,0.00
2014-7-30,86.4,71.3,56.8,61.1,56.6,49.1,93,64,32,30.18,27.83,8,2,8,0.00
2014-7-31,92.3,77.4,61.9,72.4,67.5,59.9,99,75,41,30.23,27.90,9,2,9,0.00
2014-8-1,80.8,74.2,67.3,75.7,71.4,67.0,99,91,80,30.32,27.99,6,1,6,0.45
2014-8-2,81.0,71.8,66.4,74.8,69.7,66.1,99,94,76,30.25,27.91,5,1,5,0.79
2014-8-3,87.6,76.9,70.5,77.3,73.2,70.3,99,89,63,30.17,27.86,6,1,6,0.22
2014-8-4,91.8,78.2,68.5,77.1,71.1,68.3,99,82,51,30.20,27.87,8,1,8,0.00
2014-8-5,93.2,78.3,65.5,79.4,70.8,65.0,99,80,53,30.18,27.91,7,1,7,0.00
2014-8-6,91.9,77.9,68.5,75.9,71.1,68.1,99,82,53,29.97,29.89,6,1,6,0.00
2014-8-7,90.9,76.2,63.5,76.7,67.8,63.2,99,79,46,30.08,29.93,8,1,8,0.00
2014-8-8,89.6,74.4,61.5,75.2,64.0,58.9,99,74,39,30.18,30.08,6,1,6,0.00
2014-8-9,86.9,77.2,68.2,74.2,70.5,65.1,99,81,59,30.17,30.09,8,1,8,0.00
2014-8-10,90.0,76.5,62.8,76.0,66.5,59.4,99,75,38,30.19,30.10,9,1,9,0.00
2014-8-11,88.5,74.3,59.2,77.5,65.7,58.9,99,77,43,30.17,30.03,12,2,12,0.00
2014-8-12,84.7,77.7,73.8,81.5,75.5,71.0,99,93,84,30.03,29.73,11,3,11,0.34
2014-8-13,88.9,78.7,70.2,74.2,67.7,59.5,99,72,43,29.91,29.71,11,3,11,0.00
2014-8-14,87.1,73.2,58.6,68.8,61.4,52.8,99,70,37,30.00,29.84,11,2,11,0.01
2014-8-15,88.5,71.0,56.3,64.8,58.2,49.8,99,70,34,30.10,29.95,10,1,10,0.00
2014-8-16,90.3,74.8,63.7,78.1,65.4,58.1,99,77,35,30.05,29.95,9,1,9,0.13
2014-8-17,88.9,76.5,63.7,72.9,69.6,63.1,99,81,53,29.97,29.88,9,1,9,0.00
2014-8-18,90.9,77.2,65.3,74.4,70.2,64.0,99,82,44,29.93,29.77,8,2,8,0.04
2014-8-19,89.2,77.1,69.3,79.7,73.2,69.0,99,89,61,29.91,29.76,7,1,7,0.01
2014-8-20,89.8,77.3,64.4,76.4,67.6,63.4,99,75,45,30.11,29.90,11,2,11,0.15
2014-8-21,94.5,81.3,72.1,78.9,75.1,71.9,99,83,52,30.12,30.01,9,1,9,0.00
2014-8-22,90.0,77.6,69.6,80.5,74.2,69.4,99,90,64,30.08,29.96,9,1,9,0.12
2014-8-23,83.3,72.6,66.0,74.6,70.3,65.8,99,93,68,30.18,27.85,7,1,7,0.11
2014-8-24,86.7,72.3,62.6,70.4,64.4,62.0,99,80,47,30.24,27.95,8,2,8,0.01
2014-8-25,89.1,71.7,58.3,69.5,63.0,57.8,99,78,42,30.28,27.97,9,1,9,0.00
2014-8-26,93.0,75.0,59.2,74.1,65.5,58.9,99,77,43,30.27,27.93,8,1,8,0.00
2014-8-27,94.1,76.5,60.1,77.7,66.8,59.8,99,76,41,30.19,27.73,8,1,8,0.00
2014-8-28,92.7,79.8,68.9,74.1,67.6,58.4,99,71,36,30.15,29.92,11,2,11,0.00
2014-8-29,87.4,73.1,59.9,64.5,59.6,55.7,99,67,37,30.32,30.15,11,2,11,0.00
2014-8-30,89.6,76.6,64.0,77.3,70.5,62.8,99,83,58,30.33,30.16,11,2,11,0.00
2014-8-31,97.9,84.8,74.7,80.6,75.8,72.4,99,77,50,30.23,29.99,9,2,9,0.00
2014-9-1,100.0,84.0,74.7,82.5,76.5,73.7,99,81,45,30.12,30.00,9,2,9,0.00
2014-9-2,101.3,88.8,73.8,78.8,73.8,68.5,99,66,37,30.06,29.84,10,2,10,0.00
2014-9-3,92.1,81.8,70.2,76.8,71.9,65.5,99,74,49,30.21,29.89,8,2,8,0.00
2014-9-4,92.8,80.1,68.9,77.5,71.7,67.1,99,79,45,30.25,30.16,11,2,11,0.00
2014-9-5,96.1,80.9,72.0,79.6,75.4,71.5,99,86,55,30.25,30.09,8,2,8,0.00
2014-9-6,97.7,84.1,73.2,81.2,76.0,72.7,99,79,51,30.11,29.83,10,2,10,0.00
2014-9-7,84.6,74.2,64.8,73.7,66.7,60.1,99,80,46,30.25,29.96,13,2,13,0.00
2014-9-8,75.7,69.6,66.4,70.4,67.5,65.1,99,93,79,30.30,28.01,12,2,12,0.00
2014-9-9,80.8,73.3,68.0,75.6,70.6,66.4,99,92,79,30.28,30.13,8,2,8,0.01
2014-9-10,86.9,75.8,67.6,72.4,68.3,62.2,99,79,53,30.20,30.09,9,2,9,0.00
2014-9-11,95.9,80.0,70.9,76.8,73.2,70.6,99,82,48,30.11,29.90,11,3,11,0.74
2014-9-12,82.9,71.4,63.0,73.3,65.8,61.9,99,84,56,30.22,30.01,13,2,13,0.01
2014-9-13,75.9,67.9,61.0,71.2,66.2,60.4,99,95,79,30.32,30.11,9,1,9,0.02
2014-9-14,77.9,64.3,53.6,60.7,56.9,53.3,99,80,47,30.43,28.05,8,2,8,0.00
2014-9-15,82.6,66.8,53.1,68.9,59.5,52.8,99,80,47,30.32,28.04,8,1,8,0.00
2014-9-16,82.9,72.2,60.1,69.5,62.6,56.2,99,75,46,30.12,29.97,13,2,13,0.00
2014-9-17,83.7,66.7,55.0,67.0,57.5,54.6,99,77,40,30.15,27.78,7,1,7,0.00
2014-9-18,85.3,66.7,55.2,70.6,59.7,54.8,99,81,45,30.11,27.79,10,1,10,0.00
2014-9-19,85.1,68.4,55.4,66.1,60.0,52.8,99,79,34,30.38,27.94,7,1,8,0.00
2014-9-20,86.5,70.6,58.3,75.5,63.5,58.0,99,81,46,30.36,27.38,9,1,9,0.00
2014-9-21,89.8,73.5,61.0,74.3,65.7,60.7,99,80,44,29.90,27.46,11,2,11,0.00
2014-9-22,79.3,70.1,58.5,69.4,53.1,48.1,81,56,38,30.31,29.77,12,4,12,0.00
2014-9-23,74.5,59.8,51.1,53.8,48.3,45.4,98,68,38,30.47,28.07,6,2,8,0.00
2014-9-24,71.6,63.2,51.1,65.9,60.8,50.8,99,92,75,30.44,28.14,10,3,10,0.24
2014-9-25,67.5,64.6,63.0,67.2,64.3,62.5,99,99,99,30.42,28.03,16,4,16,0.25
2014-9-26,79.5,66.1,54.9,67.6,59.9,54.6,99,83,50,30.34,28.04,11,2,11,0.00
2014-9-27,87.3,66.7,52.0,70.0,58.0,51.7,99,79,38,30.30,28.01,8,1,8,0.00
2014-9-28,87.3,67.6,52.7,76.1,60.8,52.4,99,82,49,32.13,28.05,6,1,6,0.00
2014-9-29,72.5,65.9,59.0,71.2,65.0,58.7,99,97,86,32.00,29.69,4,0,7,0.05
2014-9-30,83.7,69.4,62.8,71.0,65.3,62.3,99,88,61,31.88,31.74,8,1,8,0.01
2014-10-1,81.5,68.1,58.6,70.1,63.6,58.2,99,87,56,31.98,31.83,8,1,8,0.00
2014-10-2,81.9,65.7,56.8,70.2,61.1,56.6,99,87,57,32.10,29.77,7,1,7,0.00
2014-10-3,79.0,66.8,56.5,69.2,63.8,56.2,99,91,66,32.06,29.71,14,3,14,0.11
2014-10-4,77.7,67.9,48.6,72.1,58.0,35.6,99,73,48,31.69,29.44,16,4,16,0.00
2014-10-5,70.5,53.5,36.0,54.8,39.0,34.4,99,64,31,29.82,29.56,11,1,11,0.00
2014-10-6,78.6,65.0,51.8,53.5,49.3,45.2,85,59,34,29.87,29.71,12,4,12,0.00
2014-10-7,81.7,69.3,61.9,65.3,57.8,52.1,94,68,47,32.01,29.73,11,3,11,0.02
2014-10-8,83.5,69.3,59.9,67.9,59.0,51.4,99,74,36,31.94,31.77,13,3,13,0.06
2014-10-9,80.1,64.3,48.6,57.1,48.1,34.5,95,61,23,32.04,29.74,8,1,8,0.00
2014-10-10,78.1,62.7,58.6,61.8,57.7,52.4,99,86,45,32.07,29.72,6,2,6,0.14
2014-10-11,59.7,57.8,55.6,59.5,57.5,55.3,99,99,99,29.92,29.68,10,2,10,0.20
2014-10-12,71.8,60.6,51.3,59.9,55.0,48.4,99,84,51,30.06,29.91,6,1,6,0.00
2014-10-13,79.0,67.3,59.0,72.4,65.8,57.6,99,95,78,32.22,29.91,9,2,9,0.13
2014-10-14,82.2,74.3,68.4,73.2,70.5,68.1,99,89,70,32.11,29.68,17,5,17,0.00
2014-10-15,78.6,71.5,62.6,76.6,70.9,62.3,99,98,89,31.87,29.43,14,4,14,0.67
2014-10-16,75.6,63.5,56.5,65.0,59.6,56.2,99,89,58,29.47,29.38,10,2,10,0.00
2014-10-17,79.2,65.3,53.6,68.8,57.0,53.3,99,78,48,29.58,29.38,9,1,9,0.00
2014-10-18,78.1,65.4,54.3,65.6,52.4,41.8,99,66,38,29.61,29.33,16,4,16,0.00
2014-10-19,62.1,53.2,40.1,44.3,39.0,32.6,95,61,36,29.95,29.60,19,4,19,0.00
2014-10-20,72.3,54.8,36.3,57.3,43.8,36.1,99,71,39,29.99,29.71,13,2,13,0.00
2014-10-21,77.7,62.7,54.1,62.0,53.8,47.9,99,76,38,29.71,29.51,8,2,8,0.09
2014-10-22,59.2,54.5,53.1,57.5,54.1,50.2,99,98,91,29.69,29.56,17,4,17,0.17
2014-10-23,66.0,58.0,52.3,50.9,48.7,46.7,90,72,56,29.68,29.58,16,5,16,0.00
2014-10-24,71.6,59.1,51.4,49.7,46.4,41.2,77,64,44,29.77,29.64,11,3,11,0.00
2014-10-25,75.0,59.0,38.8,55.7,45.1,38.1,99,64,34,29.82,29.48,9,1,9,0.00
2014-10-26,73.2,61.1,50.5,51.4,38.2,22.9,94,49,16,29.72,29.45,17,2,17,0.00
2014-10-27,76.6,58.2,39.6,50.9,39.6,25.4,85,54,17,29.95,29.73,7,1,7,0.00
2014-10-28,84.2,69.8,56.8,61.2,54.2,46.4,74,59,39,29.88,29.69,8,2,8,0.00
2014-10-29,78.3,64.2,51.4,64.3,57.5,50.0,99,80,56,29.74,29.57,10,2,10,0.00
2014-10-30,66.6,53.3,41.5,51.5,44.5,38.1,99,76,37,29.87,29.74,10,2,10,0.01
2014-10-31,64.2,47.0,36.9,50.2,39.4,35.8,99,78,41,29.87,29.63,8,1,8,0.00
2014-11-1,50.5,48.2,42.4,49.9,44.4,36.1,99,87,65,29.69,29.54,21,6,21,0.05
2014-11-2,52.0,46.4,41.0,36.7,30.3,22.7,84,55,35,30.14,29.68,21,7,21,0.01
2014-11-3,64.2,50.7,38.3,36.3,29.1,19.0,77,46,20,30.23,30.12,11,2,11,0.00
2014-11-4,70.5,59.2,47.5,48.5,41.2,35.1,69,53,32,30.14,29.93,8,1,8,0.00
2014-11-5,67.3,58.9,50.7,49.7,45.2,40.7,87,62,45,30.06,29.93,6,1,6,0.00
2014-11-6,71.1,58.9,51.8,64.2,56.6,49.7,99,92,76,29.96,29.41,13,2,13,0.21
2014-11-7,62.8,52.1,38.5,51.5,37.4,25.4,99,60,36,29.98,29.48,21,5,21,0.01
2014-11-8,58.3,45.2,28.4,41.7,31.9,24.6,93,62,34,30.02,29.81,9,1,9,0.00
2014-11-9,63.3,49.6,37.2,47.5,41.0,37.0,99,74,45,29.93,29.75,8,1,8,0.00
2014-11-10,68.5,49.4,35.2,57.4,41.9,35.0,99,79,49,30.06,29.94,8,1,8,0.00
2014-11-11,75.6,56.5,41.0,61.3,52.8,40.7,99,89,58,32.03,29.66,7,0,7,0.00
2014-11-12,72.3,60.5,47.1,65.3,50.4,32.7,99,73,36,29.95,29.64,15,3,15,0.01
2014-11-13,47.3,43.8,37.2,36.9,33.0,30.6,98,66,57,30.05,29.89,11,4,15,0.02
2014-11-14,46.4,38.3,32.4,37.1,24.1,17.0,99,59,38,30.29,29.98,12,4,16,0.01
2014-11-15,48.4,34.6,25.9,26.6,21.1,18.5,78,59,38,30.41,30.29,10,2,10,0.00
2014-11-16,53.8,44.2,30.2,41.2,30.8,24.2,82,60,40,30.44,29.96,9,2,9,0.00
2014-11-17,57.0,48.3,43.3,56.8,47.3,35.3,99,97,73,29.96,29.34,12,2,12,1.18
2014-11-18,43.3,32.7,24.6,35.3,13.0,4.0,73,45,30,30.33,29.64,20,5,20,0.00
2014-11-19,38.3,31.5,18.0,19.9,13.1,6.6,75,47,32,30.45,30.11,14,3,14,0.00
2014-11-20,57.6,44.6,32.0,32.4,25.3,17.1,67,47,34,30.12,29.81,17,3,17,0.00
2014-11-21,35.6,31.9,31.6,19.2,14.2,13.4,56,47,46,30.27,30.08,8,3,8,0.00
2014-11-22,31.6,31.6,31.6,13.8,13.8,13.8,47,47,47,30.27,30.27,3,3,3,0.00
2014-11-23,31.6,31.6,31.6,13.8,13.8,13.8,47,47,47,30.27,30.27,3,3,3,0.00
2014-11-24,31.6,31.6,31.6,13.8,13.8,13.8,47,47,47,30.27,30.27,3,3,3,0.00
2014-11-25,31.6,31.6,31.6,13.8,13.8,13.8,47,47,47,30.27,30.27,3,3,3,0.00
2014-11-26,31.6,31.6,31.6,13.8,13.8,13.8,47,47,47,30.27,30.27,3,3,3,0.00
2014-11-27,31.6,31.6,31.6,13.8,13.8,13.8,47,47,47,30.27,30.27,3,3,3,0.00
2014-11-28,31.6,31.6,31.6,13.8,13.8,13.8,47,47,47,30.27,30.27,3,3,3,0.00
2014-11-29,31.6,31.6,31.6,13.8,13.8,13.8,47,47,47,30.27,30.27,3,3,3,0.00
2014-11-30,59.2,56.4,54.9,48.0,47.2,46.2,76,71,63,29.97,29.90,6,2,6,1.36
2014-12-1,75.6,59.5,46.9,57.6,50.8,44.5,96,75,49,30.22,29.87,20,2,20,0.01
2014-12-2,46.9,39.9,37.8,44.5,38.8,35.4,99,96,69,30.41,30.17,13,3,13,0.17
2014-12-3,56.8,48.0,38.8,54.8,46.2,31.5,99,94,57,30.18,29.81,11,2,11,0.01
2014-12-4,48.7,41.0,29.8,38.5,31.7,25.1,96,71,48,30.37,30.12,10,1,10,0.01
2014-12-5,43.9,41.9,39.2,43.4,39.5,34.1,99,91,79,30.41,30.25,4,1,4,0.02
2014-12-6,53.2,48.2,41.9,53.0,47.7,41.6,99,98,92,30.26,29.91,19,2,19,0.40
2014-12-7,45.3,41.4,36.5,43.6,29.4,18.9,99,64,43,30.55,30.10,20,6,20,0.12
2014-12-8,39.2,36.2,34.3,36.8,29.2,19.9,99,77,47,30.53,30.04,14,5,14,0.12
2014-12-9,46.0,39.9,34.7,45.8,39.5,34.5,99,99,94,30.04,29.61,16,6,16,0.14
2014-12-15,53.6,46.5,39.4,44.6,41.0,36.7,93,82,67,29.95,29.84,4,1,4,0.00
2014-12-16,51.6,45.9,41.2,48.3,44.7,39.6,99,96,77,29.93,29.62,6,2,6,0.21
2014-12-17,57.6,46.8,38.7,48.1,41.2,28.6,99,82,57,29.87,29.69,8,2,8,0.00
2014-12-18,42.4,38.0,34.2,27.8,25.1,23.2,69,60,48,30.02,29.88,14,4,14,0.00
2014-12-19,40.3,36.0,30.9,27.5,25.7,23.6,77,66,58,30.13,29.96,10,3,10,0.00
2014-12-20,38.8,31.3,25.2,28.4,24.7,21.6,88,77,62,30.23,30.12,4,1,4,0.00
2014-12-21,43.3,32.8,26.8,31.8,27.6,25.0,96,82,56,30.26,30.14,5,0,5,0.00
2014-12-22,40.1,36.1,30.7,39.8,34.3,28.2,99,93,79,30.28,29.90,9,2,9,0.14
2014-12-23,46.4,43.3,39.6,46.1,43.1,39.3,99,99,99,29.93,29.84,6,1,6,0.05
2014-12-24,63.3,54.2,45.7,63.1,54.0,45.4,99,99,99,29.85,29.29,8,2,8,1.32
2014-12-25,62.6,51.7,36.1,62.3,44.0,31.3,99,77,43,30.08,29.30,14,3,14,0.09
2014-12-26,57.0,39.9,29.3,50.2,34.8,28.9,99,83,58,30.21,30.07,6,1,6,0.00
2014-12-27,60.3,45.6,35.4,50.6,39.9,35.2,99,83,48,30.20,29.93,6,1,6,0.00
2014-12-28,62.2,53.2,47.7,50.6,45.9,42.4,99,77,53,29.94,29.71,8,1,8,0.01
2014-12-29,50.4,42.3,39.0,50.1,38.9,31.7,99,89,65,30.11,29.88,9,2,9,0.08
2014-12-30,42.1,36.2,24.4,37.3,28.1,22.8,94,73,56,30.36,30.10,9,2,9,0.00
2014-12-31,39.6,29.3,20.8,28.7,20.5,14.9,99,73,39,30.42,28.66,8,1,8,0.00
2015-1-1,46.9,37.5,27.3,29.4,23.2,18.2,77,57,38,30.23,29.96,12,2,12,0.00
2015-1-2,48.7,41.7,37.2,34.2,30.9,27.3,80,66,44,30.28,29.98,4,1,4,0.00